Location: Cahas Mountain Overlook
(37.0833°N, 80.1000°W)
Time: 20:09:05
(UTC-04:00)

Tiros 1 - Pass Details

Date: 14 February 2026
Orbit: 618 x 649 km, 48.4° (Epoch: 13 March)

Event Time Altitude Azimuth Distance (km) Brightness Sun altitude
Rises 11:49:22 0° 277° (W) 2,894 10.3 38.9°
Reaches altitude 10° 11:52:03 10° 291° (WNW) 1,984 9.5 39.1°
Maximum altitude 11:55:45 24° 345° (NNW) 1,290 8.5 39.2°
Drops below altitude 10° 11:59:28 10° 40° (NE) 1,979 9.5 39.4°
Sets 12:02:09 0° 55° (NE) 2,885 10.3 39.5°
